[[{"header":{"parameterUnit":"m.s-1","parameterCategory":1,"la1":30.2991,"la2":30.254,"lo1":-89.0895,"lo2":-89.0444,"dy":0.0017,"dx":0.0017,"nx":28,"ny":28,"refTime":"2025-04-09T21:00:00:Z","depth":0,"parameterNumber":2,"parameterNumberName":"U-component_of_WINDS"},"data":[0,0,0,0,0,0,0,0,0,0,0,0,0,0,0,0,0,0,0,0,0,0,0,0,0,0,0,0,0,0,0,0,0,0,0,0,0,0,0,0,0,0,0,0,0,0,0,0,0,0,0,0,0,0,0,0,0,0,2.8346,2.8347,0,2.8483,2.8485,2.8486,2.8463,2.846,2.8458,2.8456,2.8596,2.8602,2.8608,0,0,0,0,0,0,0,0,0,0,0,0,0,2.8062,2.8067,2.8345,2.8347,2.8349,2.8483,2.8485,2.8487,2.8463,2.846,2.8457,2.8454,2.8594,2.8601,2.8608,0,0,0,0,0,0,0,0,0,0,0,0,0,2.8191,2.8069,2.8345,2.8353,2.8355,2.8483,2.8485,2.8487,2.8464,2.846,2.8456,2.8453,2.8592,2.86,2.8609,2.8737,0,0,2.8637,2.8641,0,0,0,0,0,0,0,0,2.8183,2.8201,2.835,2.8353,2.8356,2.8452,2.8436,2.8571,2.8465,2.8423,2.8455,2.8451,2.8551,2.8563,2.8597,2.8744,2.875,2.8637,2.8643,2.8647,2.8649,0,0,0,0,0,0,0,2.8174,2.8195,2.84,2.8353,2.8356,2.835,2.8364,2.8462,2.8505,2.8426,2.8425,2.8441,2.8552,2.8588,2.86,2.8752,2.8637,2.8645,2.8651,2.8654,2.9011,2.9014,0,0,0,0,0,0,2.8163,2.8188,2.8396,2.8404,2.8259,2.8358,2.8374,2.8425,2.8504,2.8513,2.8444,2.844,2.8575,2.8589,2.8605,2.876,2.8647,2.8655,2.866,2.9007,2.9011,2.9016,0,0,0,0,0,0,2.8157,2.8182,2.839,2.8296,2.8322,2.8367,2.8424,2.8429,2.8466,2.8518,2.8526,2.8474,2.8572,2.8592,2.8704,2.8764,2.8659,2.8667,2.9002,2.9008,2.9014,2.9071,0,0,0,0,0,0,2.8149,2.818,2.8229,2.8297,2.8327,2.8488,2.8428,2.8435,2.8482,2.8477,2.8548,2.8556,2.8571,2.8691,2.8713,2.8775,2.8674,2.8996,2.9004,2.9012,2.9064,2.9078,2.9091,0,0,0,0,0,2.8139,2.824,2.8232,2.8257,2.8389,2.8491,2.8508,2.8524,2.8486,2.8536,2.857,2.8554,2.8754,2.8703,2.8728,2.8793,2.8993,2.9002,2.9011,2.9058,2.9076,2.909,0,0,0,0,0,0,2.8177,2.8249,2.8241,2.8366,2.8423,2.8487,2.855,2.8542,2.8611,2.8603,2.862,2.8636,2.875,2.8782,2.8724,2.8921,2.8868,2.8883,2.8895,2.8913,2.8926,2.8915,2.8682,0,0,0,0,0,2.82,2.8277,2.8335,2.8441,2.8469,2.8505,2.855,2.8557,2.8617,2.864,2.8682,2.874,2.8816,2.8866,2.8939,2.9069,2.9084,2.9126,2.9139,2.915,2.9162,2.9233,2.9253,2.9046,2.9046,2.9046,0,0,2.8249,2.8297,2.8345,2.8449,2.8494,2.8574,2.8525,2.8611,2.867,2.8653,2.8762,2.8795,2.8861,2.8982,2.9038,2.9013,2.9222,2.9161,2.9169,2.9176,2.9245,2.9264,2.9281,2.9052,2.9051,2.905,0,0,2.8378,2.8422,2.8515,2.8561,2.8629,2.8652,2.8674,2.874,2.8761,2.8871,2.886,2.893,2.9061,2.9108,2.915,2.9297,2.9285,2.932,2.939,2.9459,2.9475,2.949,2.9542,2.9561,2.9332,2.9332,2.9332,0,2.8429,2.8548,2.8563,2.8651,2.8697,2.8685,2.8779,2.8823,2.8912,2.8944,2.8915,2.9079,2.9123,2.9255,2.9291,2.9325,2.9351,2.9312,2.9472,2.9486,2.95,2.9551,2.957,2.9336,2.9336,2.9335,2.9335,0,2.8608,2.8691,2.8758,2.8844,2.8898,2.8988,2.9017,2.907,2.9072,2.9098,2.921,2.9262,2.9345,2.9377,2.938,2.951,2.9493,2.9468,2.9415,2.9523,2.9571,2.9591,2.9342,2.934,2.9339,2.9338,0,0,2.8766,2.8859,2.8883,2.8922,2.8997,2.9062,2.9151,2.9233,2.9278,2.934,2.9415,2.9526,2.9504,2.955,2.9559,2.962,2.9733,2.9587,2.9589,2.9613,2.988,2.9899,2.9921,2.9725,2.9729,2.9732,2.9875,0,2.8902,2.906,2.9076,2.9218,2.9295,2.9285,2.9363,2.9418,2.9444,2.9513,2.9543,2.9621,2.9585,2.9614,2.9673,2.9707,2.9787,2.9697,2.9796,2.9799,2.978,2.9946,2.9966,3.0098,2.9893,2.9896,2.9899,0,2.9082,2.9149,2.9299,2.9363,2.9396,2.9466,2.9542,2.9608,2.967,2.9685,2.9737,2.9738,2.983,2.9774,2.9901,2.984,2.9881,2.9904,2.9909,2.9919,2.9856,2.996,3.014,3.016,2.9928,2.9926,2.9924,0,2.9182,2.931,2.9416,2.945,2.9527,2.9577,2.9611,2.9669,2.9717,2.9784,2.9815,2.9892,2.9933,2.9993,3.0014,2.9971,3.014,3.0086,3.0156,3.0155,3.0192,3.0189,3.0381,3.0218,3.0218,3.0218,3.0217,0,2.9333,2.9425,2.9462,2.9527,2.963,2.9647,2.9749,2.9781,2.9832,2.9903,2.9899,2.9966,2.999,3.0061,3.0078,3.0181,3.02,3.0215,3.0218,3.0215,3.0214,3.0243,3.0234,3.0223,3.0222,3.0221,3.022,0,2.9462,2.9491,2.9606,2.967,2.9688,2.9761,2.9816,2.9879,2.9904,2.9994,3.0017,3.0057,3.014,3.0167,3.0268,3.0279,3.0399,3.0395,3.0379,3.0379,3.0448,3.0441,3.0665,3.0696,3.0513,3.0514,3.0516,0,2.9557,2.9627,2.9699,2.9746,2.9783,2.986,2.9909,2.9928,2.998,3.0055,3.0109,3.0191,3.0258,3.0392,3.043,3.0507,3.0504,3.0577,3.0516,3.0511,3.0506,3.0501,3.0508,3.0589,3.0591,3.0593,3.0594,0,2.9722,2.9732,2.9803,2.988,2.9938,2.9999,3.0058,3.0097,3.0125,3.0183,3.0269,3.0321,3.0423,3.0505,3.0584,3.0619,3.0612,3.0613,3.0633,3.0631,3.0619,3.0627,3.0411,3.0608,3.0606,3.0605,3.0605,3.0604,2.9837,2.9899,2.9959,3.0039,3.0085,3.014,3.0202,3.0236,3.0307,3.0392,3.0399,3.0492,3.0551,3.0655,3.0695,3.0767,3.0746,3.0775,3.0783,3.079,3.0795,3.0607,3.0781,3.0781,3.078,3.078,3.078,0,3.0002,3.004,3.0113,3.0195,3.0258,3.0245,3.0309,3.0362,3.0443,3.0499,3.0566,3.0663,3.0743,3.0787,3.0867,3.0916,3.0915,3.0936,3.0933,3.0941,3.0809,3.0784,3.0936,3.0936,3.0936,3.0936,3.0936,3.0936,3.0095,3.02,3.0217,3.0345,3.0382,3.0473,3.0511,3.0561,3.0606,3.0716,3.0782,3.081,3.0862,3.0945,3.1017,3.1028,3.1058,3.1082,3.109,3.0966,3.095,3.0935,3.0911,3.1088,3.1088,3.1216,3.1217,3.1218]},{"header":{"parameterUnit":"m.s-1","parameterCategory":1,"la1":30.2991,"la2":30.254,"lo1":-89.0895,"lo2":-89.0444,"dy":0.0017,"dx":0.0017,"nx":28,"ny":28,"refTime":"2025-04-09T21:00:00:Z","depth":0,"parameterNumber":3,"parameterNumberName":"V-component_of_WINDS"},"data":[0,0,0,0,0,0,0,0,0,0,0,0,0,0,0,0,0,0,0,0,0,0,0,0,0,0,0,0,0,0,0,0,0,0,0,0,0,0,0,0,0,0,0,0,0,0,0,0,0,0,0,0,0,0,0,0,0,0,-2.4734,-2.4736,0,-2.492,-2.4922,-2.4924,-2.496,-2.4959,-2.4957,-2.4956,-2.5149,-2.5155,-2.5161,0,0,0,0,0,0,0,0,0,0,0,0,0,-2.4412,-2.4418,-2.4734,-2.4736,-2.4738,-2.492,-2.4922,-2.4925,-2.4961,-2.4959,-2.4957,-2.4955,-2.5146,-2.5154,-2.5162,0,0,0,0,0,0,0,0,0,0,0,0,0,-2.4571,-2.442,-2.4733,-2.4778,-2.4784,-2.4919,-2.4922,-2.4926,-2.4961,-2.4959,-2.4956,-2.4954,-2.5144,-2.5153,-2.5163,-2.5268,0,0,-2.5193,-2.5197,0,0,0,0,0,0,0,0,-2.4562,-2.4582,-2.4769,-2.4775,-2.4782,-2.4915,-2.488,-2.504,-2.4961,-2.4894,-2.4956,-2.4953,-2.5073,-2.5088,-2.5128,-2.5277,-2.5285,-2.5194,-2.52,-2.5204,-2.5207,0,0,0,0,0,0,0,-2.4551,-2.4575,-2.4808,-2.4772,-2.478,-2.479,-2.481,-2.491,-2.4993,-2.4899,-2.4903,-2.4924,-2.5076,-2.5119,-2.5133,-2.5288,-2.5193,-2.5202,-2.5208,-2.5212,-2.5534,-2.5536,0,0,0,0,0,0,-2.4531,-2.4565,-2.4802,-2.4813,-2.4664,-2.4797,-2.482,-2.4874,-2.4992,-2.5008,-2.4926,-2.4925,-2.5103,-2.5121,-2.514,-2.5271,-2.5204,-2.5213,-2.5219,-2.5531,-2.5534,-2.5537,0,0,0,0,0,0,-2.4524,-2.4552,-2.4794,-2.469,-2.4722,-2.4805,-2.4866,-2.4879,-2.4922,-2.5012,-2.5027,-2.4954,-2.5102,-2.5126,-2.5236,-2.5278,-2.5217,-2.5226,-2.5528,-2.5532,-2.5536,-2.5533,0,0,0,0,0,0,-2.4515,-2.4549,-2.4589,-2.4691,-2.4727,-2.4886,-2.4869,-2.4884,-2.4938,-2.4939,-2.5043,-2.5058,-2.5102,-2.5221,-2.5246,-2.529,-2.5234,-2.5524,-2.553,-2.5534,-2.553,-2.5536,-2.5542,0,0,0,0,0,-2.4503,-2.4581,-2.4591,-2.4619,-2.4778,-2.4888,-2.4909,-2.4958,-2.4942,-2.4983,-2.5041,-2.5054,-2.527,-2.5232,-2.526,-2.5308,-2.5522,-2.5528,-2.5534,-2.5527,-2.5535,-2.5542,0,0,0,0,0,0,-2.4482,-2.4595,-2.4607,-2.472,-2.4794,-2.4894,-2.4947,-2.4965,-2.5046,-2.5043,-2.5102,-2.5125,-2.5231,-2.5281,-2.5237,-2.5417,-2.5395,-2.5407,-2.538,-2.5389,-2.5395,-2.538,-2.5242,0,0,0,0,0,-2.449,-2.4569,-2.4664,-2.4754,-2.4791,-2.4863,-2.4913,-2.4944,-2.5024,-2.5055,-2.5122,-2.5199,-2.5285,-2.5339,-2.5423,-2.5537,-2.5561,-2.5585,-2.5591,-2.5596,-2.5605,-2.5671,-2.5683,-2.5557,-2.5557,-2.5557,0,0,-2.4508,-2.458,-2.4626,-2.4752,-2.4813,-2.4895,-2.4889,-2.4975,-2.5037,-2.5069,-2.5176,-2.5228,-2.5319,-2.5432,-2.5485,-2.5476,-2.5645,-2.5603,-2.5606,-2.5614,-2.5678,-2.569,-2.5701,-2.5561,-2.556,-2.556,0,0,-2.4583,-2.4645,-2.4727,-2.4789,-2.4882,-2.4929,-2.4949,-2.5047,-2.5083,-2.5192,-2.5218,-2.5293,-2.5438,-2.5502,-2.5553,-2.5654,-2.567,-2.568,-2.5713,-2.5776,-2.5786,-2.5795,-2.5832,-2.5844,-2.5689,-2.5689,-2.5689,0,-2.4594,-2.4717,-2.4767,-2.4853,-2.4908,-2.4941,-2.5026,-2.5084,-2.5199,-2.5237,-2.5226,-2.541,-2.5474,-2.5602,-2.5627,-2.5668,-2.5693,-2.5668,-2.578,-2.579,-2.5799,-2.5835,-2.5848,-2.569,-2.569,-2.569,-2.569,0,-2.4726,-2.4811,-2.4867,-2.4977,-2.5039,-2.5123,-2.5188,-2.5245,-2.5272,-2.5321,-2.5432,-2.551,-2.561,-2.5643,-2.567,-2.5777,-2.5769,-2.5768,-2.5748,-2.5811,-2.5845,-2.5859,-2.5691,-2.5691,-2.569,-2.569,0,0,-2.4791,-2.4929,-2.4949,-2.5,-2.5106,-2.5173,-2.5261,-2.5358,-2.5406,-2.5485,-2.5561,-2.5684,-2.5685,-2.5743,-2.5778,-2.5834,-2.591,-2.5827,-2.583,-2.584,-2.6034,-2.6033,-2.6048,-2.5921,-2.5924,-2.5926,-2.6026,0,-2.4878,-2.5033,-2.5082,-2.5212,-2.5292,-2.5326,-2.5402,-2.5476,-2.5525,-2.5601,-2.5655,-2.5742,-2.5736,-2.5772,-2.5829,-2.5888,-2.595,-2.5882,-2.5993,-2.5996,-2.5968,-2.6066,-2.6065,-2.6155,-2.604,-2.6042,-2.6044,0,-2.5,-2.5081,-2.5219,-2.5316,-2.5351,-2.5419,-2.5513,-2.5585,-2.5671,-2.5702,-2.5769,-2.5799,-2.5893,-2.5868,-2.5999,-2.5952,-2.6001,-2.6037,-2.6042,-2.6054,-2.6023,-2.608,-2.6185,-2.6198,-2.6066,-2.6064,-2.6062,0,-2.5033,-2.5177,-2.5279,-2.5321,-2.5437,-2.5484,-2.5535,-2.5618,-2.5674,-2.5757,-2.5795,-2.5888,-2.5939,-2.6011,-2.6067,-2.6043,-2.6193,-2.6172,-2.6223,-2.6222,-2.6253,-2.625,-2.6366,-2.6284,-2.6284,-2.6284,-2.6284,0,-2.5125,-2.5208,-2.5295,-2.5357,-2.5452,-2.5509,-2.5602,-2.5655,-2.5729,-2.5803,-2.5838,-2.5908,-2.5977,-2.6056,-2.6101,-2.6203,-2.6226,-2.6255,-2.6266,-2.6252,-2.6248,-2.6284,-2.6279,-2.6287,-2.6287,-2.6286,-2.6285,0,-2.5178,-2.524,-2.5352,-2.5453,-2.5481,-2.5546,-2.5633,-2.5696,-2.5747,-2.584,-2.5866,-2.5946,-2.6041,-2.6104,-2.6226,-2.6256,-2.6367,-2.6377,-2.6338,-2.6343,-2.6391,-2.6385,-2.6534,-2.6557,-2.6459,-2.646,-2.6461,0,-2.5232,-2.5297,-2.5405,-2.5457,-2.5508,-2.5591,-2.5649,-2.5708,-2.5767,-2.587,-2.5921,-2.6018,-2.6099,-2.6249,-2.6319,-2.6413,-2.6425,-2.6471,-2.6439,-2.6424,-2.6426,-2.6421,-2.6429,-2.6475,-2.6476,-2.6477,-2.6477,0,-2.5322,-2.535,-2.5431,-2.5524,-2.5591,-2.5667,-2.5743,-2.5784,-2.5857,-2.5922,-2.6019,-2.6082,-2.6206,-2.6303,-2.6403,-2.6457,-2.648,-2.6487,-2.6504,-2.649,-2.6465,-2.648,-2.6352,-2.6483,-2.6482,-2.6482,-2.6482,-2.6482,-2.5378,-2.5437,-2.5523,-2.5613,-2.5676,-2.5747,-2.5811,-2.587,-2.5952,-2.6058,-2.6088,-2.619,-2.6276,-2.6414,-2.6469,-2.6551,-2.6546,-2.657,-2.6577,-2.6582,-2.6582,-2.6452,-2.6569,-2.6569,-2.6569,-2.6569,-2.6569,0,-2.547,-2.5527,-2.5609,-2.5714,-2.5786,-2.5801,-2.5886,-2.5945,-2.6034,-2.6112,-2.6191,-2.6304,-2.6398,-2.6476,-2.6574,-2.6625,-2.6638,-2.6648,-2.6645,-2.6658,-2.658,-2.6556,-2.6636,-2.6636,-2.6636,-2.6636,-2.6636,-2.6636,-2.5526,-2.5628,-2.5666,-2.58,-2.5858,-2.5957,-2.6004,-2.6071,-2.6133,-2.6257,-2.6336,-2.6386,-2.6465,-2.6569,-2.6657,-2.6678,-2.6713,-2.6721,-2.6744,-2.667,-2.6663,-2.6655,-2.6633,-2.6728,-2.6728,-2.6815,-2.6816,-2.6816]}]]